This demonstration page uses our WeatherBlox Daily Observations layout. Learn more.

38.89511, -77.03637

Hourly Observations for December 1, 2016

Temp ( °F °C ) Dew Point ( °F °C ) Humidity (%) Winds ( mph kmh ) Pressure ( in mb ) Visibility ( mi km ) Precip ( " mm )
12:52 am 00:52 Cloudy 62 16.7 61 16.1 96 96 SW 9 15 29.56 1001 10 16.0934 0 0
1:12 am 01:12 Cloudy with Heavy Rain 59 15 57 13.9 93 93 WNW 15 24 29.59 1002 3 4.82802 0.02 0.508
1:16 am 01:16 Cloudy with Heavy Rain 59 15 56 13.3 90 90 WNW 15 24 29.59 1002 3 4.82802 0.05 1.27
1:52 am 01:52 Cloudy with Light Rain 58 14.4 56 13.3 93 93 W 7 11 29.62 1003 8 12.87472 0.13 3.302
2:52 am 02:52 Mostly Cloudy 58 14.4 51 10.6 78 78 WNW 12 19 29.64 1004 10 16.0934 0.01 0.254
3:41 am 03:41 Partly Cloudy 57 13.9 45 7.2 64 64 NW 14 22 29.65 1004 10 16.0934 0 0
3:52 am 03:52 Partly Cloudy 56 13.3 45 7.2 67 67 NW 10 17 29.66 1004 10 16.0934 0 0
4:52 am 04:52 Clear 55 12.8 42 5.6 62 62 WNW 13 20 29.68 1005 10 16.0934 0 0
5:52 am 05:52 Clear 54 12.2 41 5 62 62 Calm 29.71 1006 10 16.0934 0 0
6:52 am 06:52 Mostly Clear 53 11.7 40 4.4 61 61 WNW 8 13 29.74 1007 10 16.0934 0 0
7:52 am 07:52 Mostly Sunny 53 11.7 39 3.9 59 59 NW 13 20 29.76 1008 10 16.0934 0 0
8:52 am 08:52 Sunny 53 11.7 37 2.8 55 55 NW 13 20 29.79 1009 10 16.0934 0 0
9:52 am 09:52 Sunny 54 12.2 36 2.2 51 51 NW 13 20 29.8 1009 10 16.0934 0 0
10:52 am 10:52 Mostly Sunny 55 12.8 35 1.7 47 47 WNW 10 17 29.8 1009 10 16.0934 0 0
11:52 am 11:52 Mostly Sunny 56 13.3 34 1.1 44 44 WNW 14 22 29.79 1009 10 16.0934 0 0
12:52 pm 12:52 Partly Cloudy 58 14.4 35 1.7 42 42 NW 13 20 29.78 1008 10 16.0934 0 0
1:52 pm 13:52 Partly Cloudy 59 15 34 1.1 39 39 WNW 13 20 29.78 1008 10 16.0934 0 0
2:52 pm 14:52 Partly Cloudy 58 14.4 32 0 38 38 WNW 15 24 29.79 1009 10 16.0934 0 0
3:52 pm 15:52 Partly Cloudy 55 12.8 33 0.6 44 44 NNW 16 26 29.82 1010 10 16.0934 0 0
4:52 pm 16:52 Mostly Clear 51 10.6 32 0 48 48 NW 17 28 29.85 1011 10 16.0934 0 0
5:52 pm 17:52 Mostly Clear 50 10 30 -1.1 46 46 NW 18 30 29.88 1012 10 16.0934 0 0
6:52 pm 18:52 Cloudy 63 17 57 14 83 83 NNW 13 20 29.65 1004 10 16.0934 0 0
7:52 pm 19:52 Clear 48 8.9 31 -0.6 52 52 NW 18 30 29.92 1013 10 16.0934 0 0
8:52 pm 20:52 Mostly Clear 47 8.3 29 -1.7 50 50 NW 16 26 29.93 1014 10 16.0934 0 0
9:52 pm 21:52 Mostly Cloudy 47 8.3 30 -1.1 52 52 WNW 5 7 29.96 1015 10 16.0934 0 0
10:52 pm 22:52 Cloudy 48 8.9 30 -1.1 50 50 VRB 3 6 29.96 1015 10 16.0934 0 0
11:52 pm 23:52 Cloudy 48 8.9 29 -1.7 48 48 WNW 10 17 29.98 1015 10 16.0934 0 0

Powered by AerisWeather